QPF
0.00 0.00 0.00 0.00 0.00 0.00 0.01 0.01 0.01 0.01 0.01 0.01 0.01 0.02 0.02 0.02 0.03 0.02 0.01 0.01 0.01 0.01 0.01 0.01 0.01 0.01 0.01 0.01 0.01 0.01 0.02 0.03 0.05 0.04 0.05 0.06 0.07 0.08 0.07 0.06 0.06 0.06 0.08 0.08
0.00 0.00 0.00 0.00 0.00 0.00 0.01 0.01 0.01 0.01 0.01 0.01 0.02 0.05 0.04 0.03 0.03 0.02 0.01 0.01 0.01 0.01 0.01 0.01 0.01 0.01 0.01 0.00 0.00 0.01 0.01 0.02 0.03 0.03 0.03 0.04 0.06 0.08 0.10 0.09 0.08 0.07 0.07 0.08
0.00 0.00 0.00 0.00 0.00 0.00 0.01 0.01 0.01 0.01 0.01 0.01 0.03 0.04 0.03 0.01 0.01 0.01 0.01 0.01 0.01 0.01 0.01 0.01 0.01 0.01 0.01 0.01 0.01 0.01 0.02 0.02 0.02 0.02 0.03 0.05 0.05 0.07 0.09 0.10 0.10 0.08 0.07 0.07
0.00 0.00 0.00 0.00 0.00 0.00 0.01 0.01 0.01 0.01 0.01 0.01 0.02 0.01 0.01 0.01 0.01 0.01 0.01 0.01 0.01 0.01 0.01 0.01 0.01 0.02 0.02 0.02 0.01 0.03 0.04 0.03 0.03 0.02 0.03 0.04 0.05 0.06 0.07 0.09 0.09 0.08 0.07 0.07
0.00 0.01 0.00 0.00 0.00 0.00 0.00 0.01 0.01 0.00 0.00 0.01 0.02 0.01 0.02 0.02 0.02 0.01 0.01 0.01 0.01 0.01 0.01 0.01 0.01 0.02 0.04 0.04 0.05 0.04 0.04 0.04 0.06 0.06 0.05 0.05 0.05 0.06 0.08 0.09 0.10 0.09 0.10 0.10
0.00 0.01 0.00 0.00 0.00 0.00 0.00 0.01 0.01 0.00 0.00 0.01 0.01 0.02 0.02 0.02 0.01 0.01 0.00 0.00 0.01 0.01 0.01 0.01 0.01 0.02 0.04 0.04 0.03 0.03 0.05 0.11 0.13 0.11 0.10 0.10 0.08 0.06 0.07 0.08 0.10 0.11 0.11 0.08
0.01 0.01 0.01 0.01 0.00 0.00 0.01 0.01 0.01 0.01 0.00 0.01 0.01 0.01 0.01 0.01 0.01 0.00 0.00 0.00 0.00 0.00 0.01 0.01 0.01 0.02 0.03 0.04 0.04 0.04 0.04 0.06 0.11 0.15 0.16 0.12 0.07 0.05 0.06 0.07 0.07 0.07 0.07 0.08
0.01 0.01 0.01 0.01 0.00 0.00 0.01 0.01 0.01 0.01 0.01 0.01 0.01 0.01 0.00 0.00 0.01 0.02 0.02 0.01 0.01 0.01 0.01 0.01 0.01 0.02 0.02 0.04 0.06 0.06 0.06 0.10 0.13 0.11 0.07 0.05 0.04 0.04 0.04 0.05 0.05 0.05 0.05 0.06
0.00 0.00 0.01 0.01 0.00 0.01 0.01 0.01 0.02 0.02 0.01 0.01 0.00 0.01 0.01 0.03 0.05 0.05 0.03 0.01 0.01 0.01 0.01 0.01 0.01 0.01 0.02 0.04 0.10 0.09 0.06 0.07 0.06 0.05 0.03 0.03 0.02 0.03 0.04 0.05 0.04 0.05 0.06 0.05
0.00 0.01 0.02 0.02 0.01 0.01 0.01 0.01 0.01 0.02 0.02 0.01 0.01 0.02 0.02 0.04 0.03 0.02 0.02 0.02 0.01 0.01 0.01 0.01 0.01 0.01 0.02 0.03 0.05 0.07 0.05 0.05 0.04 0.05 0.05 0.05 0.04 0.04 0.04 0.05 0.05 0.06 0.07 0.07
0.01 0.04 0.08 0.07 0.06 0.05 0.04 0.02 0.01 0.01 0.02 0.02 0.02 0.02 0.02 0.02 0.02 0.02 0.02 0.01 0.01 0.01 0.01 0.01 0.00 0.01 0.01 0.03 0.06 0.07 0.08 0.07 0.06 0.08 0.06 0.06 0.06 0.06 0.07 0.07 0.08 0.08 0.07 0.08
0.01 0.03 0.06 0.08 0.09 0.10 0.11 0.10 0.07 0.04 0.02 0.03 0.03 0.02 0.02 0.02 0.02 0.01 0.02 0.02 0.01 0.01 0.01 0.02 0.01 0.01 0.01 0.02 0.04 0.06 0.07 0.08 0.08 0.07 0.08 0.09 0.10 0.12 0.11 0.10 0.10 0.09 0.09 0.08
0.01 0.01 0.02 0.03 0.04 0.05 0.07 0.11 0.13 0.11 0.07 0.04 0.03 0.03 0.03 0.02 0.01 0.01 0.01 0.01 0.01 0.01 0.01 0.01 0.02 0.02 0.02 0.02 0.03 0.05 0.08 0.09 0.09 0.09 0.10 0.11 0.11 0.13 0.13 0.13 0.13 0.10 0.08 0.07
0.02 0.01 0.01 0.01 0.04 0.05 0.03 0.07 0.11 0.11 0.11 0.09 0.05 0.04 0.04 0.04 0.03 0.01 0.01 0.02 0.02 0.02 0.01 0.01 0.02 0.02 0.02 0.02 0.03 0.04 0.07 0.14 0.17 0.11 0.12 0.11 0.11 0.12 0.15 0.13 0.12 0.10 0.10 0.09
0.01 0.01 0.01 0.01 0.02 0.05 0.04 0.04 0.08 0.10 0.08 0.08 0.07 0.04 0.04 0.04 0.03 0.02 0.01 0.01 0.02 0.01 0.01 0.01 0.02 0.02 0.03 0.03 0.03 0.03 0.05 0.07 0.11 0.15 0.16 0.15 0.15 0.14 0.15 0.14 0.12 0.11 0.10 0.08
0.00 0.00 0.00 0.01 0.01 0.02 0.05 0.05 0.06 0.06 0.05 0.05 0.05 0.04 0.03 0.02 0.02 0.02 0.02 0.01 0.01 0.01 0.02 0.02 0.02 0.03 0.06 0.08 0.06 0.04 0.04 0.07 0.09 0.09 0.12 0.14 0.14 0.15 0.17 0.19 0.18 0.16 0.14 0.13
0.01 0.01 0.00 0.01 0.01 0.01 0.02 0.03 0.04 0.04 0.04 0.04 0.04 0.04 0.04 0.03 0.02 0.01 0.01 0.01 0.01 0.01 0.02 0.02 0.02 0.04 0.09 0.10 0.08 0.05 0.04 0.06 0.06 0.07 0.08 0.08 0.09 0.09 0.09 0.11 0.14 0.13 0.12 0.14
0.01 0.01 0.01 0.01 0.01 0.01 0.02 0.01 0.01 0.02 0.03 0.03 0.03 0.03 0.02 0.02 0.02 0.01 0.01 0.01 0.02 0.01 0.01 0.02 0.02 0.04 0.05 0.06 0.05 0.04 0.05 0.05 0.03 0.03 0.02 0.03 0.04 0.04 0.06 0.08 0.09 0.09 0.10 0.13
0.02 0.02 0.02 0.02 0.02 0.01 0.01 0.01 0.01 0.01 0.01 0.02 0.02 0.02 0.02 0.02 0.02 0.01 0.01 0.01 0.01 0.01 0.01 0.01 0.02 0.03 0.03 0.03 0.02 0.02 0.02 0.01 0.01 0.01 0.01 0.02 0.03 0.06 0.09 0.10 0.08 0.06 0.05 0.06
0.04 0.05 0.04 0.03 0.03 0.02 0.01 0.02 0.02 0.02 0.02 0.02 0.02 0.03 0.02 0.02 0.02 0.01 0.01 0.01 0.02 0.02 0.02 0.02 0.02 0.02 0.02 0.02 0.01 0.01 0.01 0.01 0.01 0.02 0.02 0.03 0.04 0.04 0.06 0.09 0.09 0.07 0.06 0.06
0.06 0.06 0.04 0.02 0.02 0.02 0.02 0.02 0.03 0.03 0.02 0.03 0.03 0.02 0.02 0.02 0.02 0.02 0.02 0.02 0.02 0.02 0.02 0.02 0.02 0.02 0.02 0.02 0.01 0.00 0.00 0.01 0.02 0.03 0.04 0.03 0.04 0.03 0.03 0.04 0.06 0.08 0.07 0.07
0.04 0.03 0.02 0.02 0.02 0.02 0.02 0.03 0.03 0.03 0.03 0.02 0.02 0.03 0.03 0.03 0.02 0.02 0.02 0.02 0.02 0.03 0.02 0.02 0.02 0.02 0.02 0.01 0.01 0.01 0.01 0.02 0.02 0.03 0.03 0.02 0.03 0.03 0.03 0.03 0.04 0.05 0.06 0.06
0.02 0.02 0.02 0.03 0.04 0.03 0.03 0.04 0.03 0.02 0.02 0.02 0.03 0.05 0.05 0.04 0.03 0.03 0.03 0.03 0.03 0.03 0.03 0.03 0.03 0.03 0.03 0.02 0.02 0.02 0.02 0.02 0.02 0.02 0.02 0.02 0.03 0.03 0.03 0.03 0.03 0.04 0.05 0.06
0.01 0.02 0.03 0.05 0.07 0.08 0.08 0.09 0.09 0.11 0.11 0.08 0.06 0.08 0.06 0.05 0.05 0.05 0.04 0.04 0.04 0.04 0.04 0.04 0.04 0.04 0.03 0.03 0.02 0.03 0.02 0.02 0.02 0.02 0.01 0.01 0.02 0.02 0.03 0.05 0.05 0.04 0.05 0.07
0.02 0.03 0.04 0.06 0.10 0.12 0.14 0.16 0.18 0.17 0.11 0.07 0.08 0.07 0.06 0.07 0.07 0.06 0.06 0.05 0.06 0.07 0.06 0.05 0.04 0.03 0.04 0.04 0.04 0.04 0.02 0.02 0.02 0.01 0.02 0.02 0.03 0.03 0.04 0.07 0.09 0.08 0.08 0.07
0.02 0.02 0.03 0.04 0.08 0.11 0.12 0.12 0.11 0.09 0.08 0.09 0.08 0.07 0.08 0.09 0.08 0.07 0.06 0.05 0.06 0.07 0.06 0.05 0.04 0.04 0.04 0.04 0.04 0.03 0.02 0.02 0.02 0.03 0.03 0.03 0.04 0.03 0.04 0.05 0.08 0.09 0.08 0.08
0.02 0.03 0.04 0.04 0.05 0.07 0.08 0.08 0.09 0.10 0.10 0.09 0.09 0.11 0.12 0.10 0.08 0.07 0.05 0.05 0.06 0.06 0.06 0.05 0.06 0.05 0.05 0.04 0.03 0.03 0.03 0.03 0.03 0.03 0.04 0.04 0.04 0.04 0.05 0.06 0.08 0.08 0.08 0.08
MSLP
1017.47 1017.42 1017.42 1017.49 1017.61 1017.72 1017.78 1017.72 1017.51 1017.12 1016.57 1015.87 1015.09 1014.29 1013.52 1012.82 1012.23 1011.74 1011.32 1010.95 1010.60 1010.22 1009.82 1009.38 1008.94 1008.50 1008.11 1007.78 1007.53 1007.34 1007.21 1007.11 1007.01 1006.89 1006.73 1006.54 1006.32 1006.10 1005.89 1005.73 1005.63 1005.59 1005.63 1005.74
1018.22 1018.23 1018.24 1018.24 1018.24 1018.21 1018.11 1017.93 1017.63 1017.22 1016.69 1016.07 1015.40 1014.73 1014.07 1013.47 1012.93 1012.44 1011.99 1011.56 1011.13 1010.68 1010.22 1009.73 1009.26 1008.80 1008.39 1008.05 1007.77 1007.54 1007.36 1007.19 1007.03 1006.85 1006.64 1006.40 1006.15 1005.89 1005.65 1005.44 1005.27 1005.15 1005.09 1005.07
1018.99 1019.04 1019.04 1018.98 1018.87 1018.70 1018.47 1018.17 1017.78 1017.33 1016.80 1016.24 1015.64 1015.05 1014.47 1013.93 1013.41 1012.91 1012.43 1011.95 1011.45 1010.95 1010.43 1009.91 1009.40 1008.93 1008.51 1008.13 1007.82 1007.55 1007.31 1007.10 1006.88 1006.66 1006.43 1006.19 1005.94 1005.70 1005.46 1005.24 1005.03 1004.85 1004.68 1004.54
1019.75 1019.80 1019.76 1019.62 1019.41 1019.12 1018.76 1018.35 1017.89 1017.38 1016.85 1016.31 1015.76 1015.21 1014.68 1014.16 1013.65 1013.13 1012.61 1012.08 1011.53 1010.98 1010.42 1009.87 1009.34 1008.85 1008.40 1008.00 1007.64 1007.33 1007.04 1006.78 1006.54 1006.30 1006.08 1005.86 1005.66 1005.46 1005.26 1005.06 1004.85 1004.62 1004.36 1004.09
1020.44 1020.44 1020.32 1020.09 1019.76 1019.35 1018.89 1018.38 1017.85 1017.31 1016.76 1016.23 1015.70 1015.18 1014.67 1014.15 1013.62 1013.08 1012.53 1011.95 1011.36 1010.77 1010.18 1009.61 1009.06 1008.55 1008.07 1007.64 1007.25 1006.89 1006.56 1006.26 1006.00 1005.76 1005.57 1005.40 1005.26 1005.13 1004.99 1004.84 1004.64 1004.39 1004.06 1003.67
1020.97 1020.87 1020.64 1020.30 1019.85 1019.34 1018.78 1018.20 1017.62 1017.04 1016.49 1015.96 1015.44 1014.93 1014.43 1013.90 1013.36 1012.79 1012.20 1011.59 1010.97 1010.35 1009.74 1009.15 1008.59 1008.06 1007.57 1007.11 1006.68 1006.28 1005.92 1005.59 1005.32 1005.09 1004.92 1004.81 1004.74 1004.68 1004.62 1004.51 1004.34 1004.07 1003.68 1003.20
1021.27 1021.04 1020.68 1020.22 1019.67 1019.06 1018.42 1017.79 1017.17 1016.59 1016.03 1015.51 1015.00 1014.50 1013.99 1013.46 1012.89 1012.30 1011.68 1011.04 1010.39 1009.75 1009.13 1008.53 1007.97 1007.44 1006.93 1006.45 1006.00 1005.57 1005.18 1004.84 1004.56 1004.34 1004.20 1004.13 1004.11 1004.12 1004.11 1004.04 1003.89 1003.61 1003.18 1002.62
1021.31 1020.94 1020.45 1019.87 1019.23 1018.55 1017.86 1017.20 1016.57 1015.98 1015.44 1014.93 1014.44 1013.94 1013.42 1012.87 1012.29 1011.67 1011.02 1010.35 1009.69 1009.04 1008.41 1007.82 1007.26 1006.73 1006.22 1005.74 1005.27 1004.83 1004.43 1004.08 1003.79 1003.58 1003.46 1003.41 1003.42 1003.45 1003.47 1003.43 1003.28 1002.98 1002.53 1001.92
1021.10 1020.60 1020.01 1019.34 1018.62 1017.89 1017.19 1016.52 1015.90 1015.33 1014.81 1014.31 1013.83 1013.33 1012.80 1012.23 1011.62 1010.97 1010.29 1009.61 1008.92 1008.27 1007.64 1007.05 1006.50 1005.99 1005.49 1005.02 1004.56 1004.12 1003.72 1003.36 1003.07 1002.86 1002.73 1002.68 1002.69 1002.72 1002.74 1002.69 1002.53 1002.22 1001.75 1001.12
1020.71 1020.12 1019.44 1018.71 1017.96 1017.22 1016.51 1015.85 1015.26 1014.72 1014.22 1013.74 1013.26 1012.75 1012.21 1011.62 1010.97 1010.29 1009.58 1008.86 1008.16 1007.50 1006.87 1006.29 1005.75 1005.25 1004.78 1004.32 1003.88 1003.46 1003.06 1002.71 1002.42 1002.19 1002.05 1001.98 1001.96 1001.97 1001.95 1001.87 1001.69 1001.37 1000.90 1000.28
1020.23 1019.57 1018.86 1018.10 1017.34 1016.61 1015.93 1015.30 1014.73 1014.22 1013.74 1013.27 1012.79 1012.27 1011.70 1011.07 1010.39 1009.67 1008.92 1008.17 1007.45 1006.76 1006.13 1005.55 1005.02 1004.54 1004.08 1003.65 1003.24 1002.84 1002.46 1002.11 1001.82 1001.58 1001.41 1001.30 1001.24 1001.20 1001.15 1001.03 1000.83 1000.50 1000.05 999.47
1019.74 1019.06 1018.34 1017.59 1016.85 1016.15 1015.49 1014.90 1014.36 1013.87 1013.40 1012.92 1012.43 1011.88 1011.28 1010.61 1009.89 1009.12 1008.33 1007.55 1006.79 1006.08 1005.43 1004.84 1004.31 1003.84 1003.40 1002.99 1002.60 1002.22 1001.86 1001.53 1001.24 1000.99 1000.79 1000.65 1000.55 1000.46 1000.35 1000.21 999.99 999.67 999.26 998.74
1019.31 1018.64 1017.93 1017.20 1016.50 1015.82 1015.20 1014.63 1014.11 1013.62 1013.15 1012.66 1012.14 1011.56 1010.92 1010.21 1009.44 1008.63 1007.79 1006.97 1006.17 1005.43 1004.76 1004.15 1003.62 1003.14 1002.71 1002.32 1001.94 1001.59 1001.25 1000.93 1000.64 1000.39 1000.17 1000.00 999.85 999.73 999.59 999.43 999.21 998.93 998.57 998.15
1018.97 1018.31 1017.62 1016.92 1016.24 1015.60 1015.00 1014.44 1013.92 1013.42 1012.92 1012.41 1011.85 1011.24 1010.55 1009.80 1009.00 1008.14 1007.28 1006.41 1005.59 1004.81 1004.11 1003.48 1002.92 1002.43 1002.00 1001.61 1001.25 1000.91 1000.59 1000.28 1000.00 999.75 999.53 999.33 999.17 999.02 998.87 998.71 998.52 998.28 998.01 997.69
1018.70 1018.05 1017.38 1016.71 1016.05 1015.42 1014.82 1014.26 1013.72 1013.19 1012.66 1012.11 1011.51 1010.86 1010.14 1009.36 1008.52 1007.64 1006.74 1005.86 1005.00 1004.20 1003.47 1002.81 1002.23 1001.72 1001.27 1000.88 1000.52 1000.19 999.88 999.59 999.32 999.08 998.86 998.66 998.50 998.35 998.21 998.07 997.92 997.76 997.57 997.38
1018.47 1017.84 1017.18 1016.52 1015.86 1015.23 1014.62 1014.03 1013.47 1012.90 1012.33 1011.73 1011.10 1010.40 1009.65 1008.85 1007.99 1007.10 1006.19 1005.30 1004.43 1003.60 1002.85 1002.17 1001.56 1001.03 1000.57 1000.16 999.80 999.47 999.17 998.90 998.64 998.41 998.21 998.03 997.87 997.74 997.63 997.53 997.45 997.36 997.28 997.21
1018.26 1017.63 1016.98 1016.32 1015.66 1015.02 1014.39 1013.77 1013.17 1012.56 1011.94 1011.30 1010.62 1009.90 1009.13 1008.31 1007.45 1006.56 1005.65 1004.76 1003.88 1003.06 1002.29 1001.59 1000.97 1000.42 999.94 999.53 999.16 998.83 998.54 998.28 998.04 997.83 997.64 997.48 997.36 997.26 997.19 997.14 997.12 997.13 997.16 997.21
1018.03 1017.41 1016.77 1016.12 1015.47 1014.81 1014.16 1013.52 1012.87 1012.22 1011.56 1010.88 1010.17 1009.42 1008.64 1007.81 1006.96 1006.07 1005.18 1004.30 1003.44 1002.62 1001.85 1001.15 1000.52 999.97 999.48 999.05 998.68 998.36 998.08 997.83 997.61 997.42 997.25 997.12 997.03 996.97 996.94 996.96 997.01 997.10 997.23 997.39
1017.79 1017.19 1016.58 1015.95 1015.31 1014.66 1014.00 1013.34 1012.66 1011.98 1011.29 1010.58 1009.84 1009.07 1008.28 1007.46 1006.61 1005.74 1004.87 1004.01 1003.17 1002.36 1001.61 1000.92 1000.29 999.74 999.25 998.83 998.46 998.15 997.88 997.64 997.44 997.28 997.14 997.04 996.98 996.96 996.98 997.06 997.18 997.35 997.56 997.82
1017.56 1017.00 1016.43 1015.84 1015.23 1014.60 1013.96 1013.30 1012.62 1011.92 1011.21 1010.48 1009.73 1008.95 1008.15 1007.33 1006.49 1005.64 1004.79 1003.95 1003.14 1002.36 1001.63 1000.95 1000.34 999.80 999.33 998.92 998.57 998.27 998.01 997.80 997.62 997.48 997.37 997.30 997.28 997.30 997.37 997.49 997.67 997.91 998.20 998.53
1017.33 1016.84 1016.33 1015.80 1015.25 1014.67 1014.06 1013.43 1012.77 1012.08 1011.37 1010.63 1009.87 1009.10 1008.30 1007.48 1006.65 1005.82 1004.99 1004.18 1003.39 1002.64 1001.94 1001.29 1000.71 1000.19 999.74 999.35 999.02 998.75 998.52 998.33 998.18 998.06 997.99 997.95 997.96 998.02 998.13 998.30 998.53 998.81 999.16 999.55
1017.12 1016.71 1016.28 1015.83 1015.35 1014.84 1014.28 1013.70 1013.07 1012.42 1011.73 1011.01 1010.27 1009.50 1008.71 1007.91 1007.10 1006.29 1005.48 1004.70 1003.94 1003.22 1002.55 1001.94 1001.39 1000.91 1000.49 1000.13 999.83 999.59 999.39 999.23 999.11 999.03 998.98 998.98 999.03 999.12 999.27 999.47 999.73 1000.05 1000.42 1000.84
1016.92 1016.58 1016.23 1015.87 1015.47 1015.03 1014.55 1014.03 1013.47 1012.86 1012.22 1011.54 1010.83 1010.09 1009.33 1008.55 1007.77 1006.99 1006.22 1005.47 1004.75 1004.07 1003.44 1002.87 1002.36 1001.92 1001.54 1001.22 1000.96 1000.74 1000.58 1000.45 1000.37 1000.32 1000.31 1000.34 1000.42 1000.54 1000.72 1000.95 1001.23 1001.57 1001.95 1002.36
1016.69 1016.42 1016.14 1015.85 1015.53 1015.17 1014.77 1014.32 1013.83 1013.29 1012.71 1012.10 1011.44 1010.76 1010.05 1009.32 1008.59 1007.86 1007.13 1006.43 1005.76 1005.14 1004.56 1004.04 1003.58 1003.18 1002.84 1002.56 1002.33 1002.16 1002.02 1001.93 1001.88 1001.86 1001.88 1001.94 1002.05 1002.20 1002.39 1002.64 1002.93 1003.26 1003.62 1004.01
1016.41 1016.19 1015.96 1015.72 1015.46 1015.17 1014.84 1014.47 1014.06 1013.61 1013.11 1012.58 1012.00 1011.40 1010.77 1010.12 1009.46 1008.79 1008.14 1007.51 1006.91 1006.34 1005.82 1005.36 1004.95 1004.60 1004.31 1004.07 1003.88 1003.73 1003.63 1003.56 1003.53 1003.54 1003.59 1003.67 1003.79 1003.96 1004.16 1004.40 1004.68 1004.99 1005.32 1005.65
1016.06 1015.85 1015.65 1015.44 1015.21 1014.97 1014.71 1014.41 1014.09 1013.73 1013.33 1012.89 1012.43 1011.92 1011.40 1010.85 1010.29 1009.72 1009.16 1008.62 1008.10 1007.61 1007.17 1006.77 1006.41 1006.11 1005.86 1005.65 1005.49 1005.37 1005.29 1005.24 1005.23 1005.25 1005.30 1005.39 1005.52 1005.68 1005.88 1006.11 1006.36 1006.63 1006.91 1007.17
1015.63 1015.41 1015.20 1015.00 1014.80 1014.60 1014.38 1014.16 1013.91 1013.64 1013.35 1013.03 1012.68 1012.31 1011.90 1011.48 1011.04 1010.59 1010.14 1009.70 1009.27 1008.87 1008.50 1008.16 1007.87 1007.61 1007.39 1007.22 1007.07 1006.97 1006.89 1006.85 1006.83 1006.85 1006.90 1006.98 1007.10 1007.25 1007.42 1007.62 1007.83 1008.05 1008.26 1008.45
Thickness
5781 5791 5795 5793 5793 5794 5784 5774 5763 5768 5772 5779 5787 5793 5796 5797 5796 5795 5793 5792 5791 5790 5790 5791 5790 5789 5787 5785 5784 5782 5778 5775 5774 5773 5771 5768 5766 5764 5762 5760 5759 5756 5753 5751
5773 5787 5789 5786 5791 5790 5786 5782 5775 5773 5771 5786 5790 5791 5790 5790 5791 5788 5787 5787 5787 5787 5786 5785 5785 5784 5783 5781 5780 5777 5773 5771 5770 5769 5766 5764 5762 5760 5757 5756 5755 5752 5749 5747
5749 5768 5773 5760 5779 5782 5780 5783 5778 5766 5772 5781 5780 5781 5781 5783 5784 5783 5783 5782 5781 5781 5781 5781 5780 5779 5778 5777 5775 5772 5769 5767 5765 5763 5761 5759 5758 5755 5752 5750 5749 5747 5745 5744
5738 5748 5734 5757 5787 5788 5779 5778 5780 5778 5778 5780 5780 5780 5780 5781 5779 5777 5777 5777 5777 5777 5777 5776 5775 5774 5773 5773 5770 5766 5763 5761 5759 5757 5755 5754 5752 5749 5747 5745 5743 5742 5740 5739
5724 5725 5734 5760 5776 5777 5769 5760 5773 5772 5773 5774 5776 5772 5768 5775 5775 5772 5772 5772 5772 5773 5772 5769 5768 5767 5766 5764 5763 5760 5758 5756 5755 5752 5748 5747 5745 5743 5742 5740 5738 5737 5736 5734
5721 5721 5718 5743 5772 5782 5769 5742 5763 5766 5763 5764 5763 5745 5750 5766 5769 5768 5768 5767 5766 5765 5763 5761 5761 5761 5757 5754 5753 5753 5753 5752 5750 5748 5744 5742 5740 5739 5738 5735 5733 5732 5731 5730
5715 5713 5723 5751 5769 5770 5735 5731 5755 5759 5758 5757 5751 5749 5754 5760 5761 5761 5760 5760 5759 5756 5753 5752 5753 5752 5748 5746 5745 5747 5747 5746 5743 5742 5741 5739 5737 5735 5731 5730 5728 5727 5726 5726
5705 5702 5713 5751 5754 5742 5736 5748 5751 5751 5751 5749 5749 5750 5752 5752 5752 5752 5750 5750 5749 5745 5743 5744 5744 5742 5738 5737 5739 5739 5738 5737 5735 5734 5734 5734 5730 5727 5725 5723 5720 5719 5718 5718
5709 5712 5730 5744 5743 5746 5747 5743 5743 5742 5743 5742 5740 5741 5742 5742 5743 5743 5742 5740 5738 5735 5733 5733 5733 5732 5729 5729 5731 5730 5729 5728 5727 5727 5725 5724 5721 5719 5717 5715 5713 5712 5711 5710
5708 5716 5726 5733 5738 5740 5742 5739 5739 5739 5737 5736 5732 5731 5732 5732 5731 5731 5731 5730 5727 5724 5722 5721 5722 5722 5721 5721 5721 5720 5718 5717 5717 5716 5716 5715 5713 5711 5709 5707 5706 5705 5704 5703
5699 5708 5715 5720 5726 5730 5732 5733 5731 5730 5729 5727 5725 5722 5722 5722 5722 5722 5720 5719 5718 5714 5712 5711 5712 5711 5711 5711 5710 5708 5708 5708 5707 5707 5706 5706 5705 5704 5703 5703 5702 5700 5699 5698
5690 5702 5701 5705 5716 5722 5721 5721 5721 5719 5717 5717 5716 5713 5713 5712 5713 5712 5710 5709 5707 5704 5702 5702 5702 5701 5702 5702 5700 5697 5695 5696 5696 5696 5697 5696 5695 5695 5696 5696 5696 5695 5693 5692
5701 5704 5703 5706 5709 5712 5711 5711 5712 5710 5708 5706 5707 5706 5704 5703 5703 5702 5700 5699 5697 5695 5694 5692 5692 5691 5692 5692 5691 5689 5687 5687 5687 5687 5687 5686 5686 5685 5684 5687 5688 5687 5686 5685
5701 5699 5695 5697 5697 5702 5703 5703 5703 5701 5700 5698 5697 5697 5695 5694 5692 5691 5690 5689 5689 5687 5685 5683 5682 5682 5684 5684 5683 5681 5680 5679 5678 5678 5678 5678 5678 5678 5677 5676 5676 5678 5679 5679
5692 5692 5689 5691 5691 5692 5693 5692 5689 5688 5688 5687 5687 5686 5685 5683 5682 5682 5682 5682 5680 5678 5676 5674 5673 5673 5675 5675 5674 5673 5672 5671 5671 5670 5670 5670 5670 5670 5670 5669 5669 5669 5669 5669
5683 5684 5683 5681 5680 5681 5682 5681 5677 5677 5678 5677 5676 5676 5677 5676 5675 5674 5674 5673 5670 5668 5667 5666 5665 5666 5667 5667 5666 5665 5664 5664 5664 5663 5662 5662 5661 5660 5660 5660 5659 5659 5658 5659
5671 5670 5670 5670 5671 5672 5672 5672 5671 5670 5670 5668 5668 5669 5669 5668 5666 5665 5665 5665 5664 5662 5661 5659 5658 5659 5659 5659 5658 5657 5657 5656 5657 5655 5654 5653 5652 5652 5652 5651 5650 5650 5650 5651
5668 5668 5667 5666 5665 5664 5665 5665 5664 5663 5662 5662 5662 5661 5659 5658 5656 5657 5658 5657 5656 5655 5654 5654 5653 5652 5652 5651 5650 5649 5649 5648 5647 5646 5646 5645 5644 5644 5644 5643 5643 5643 5643 5643
5661 5661 5661 5661 5660 5658 5657 5657 5656 5656 5656 5656 5655 5653 5652 5652 5651 5651 5651 5649 5648 5647 5647 5648 5647 5646 5645 5645 5644 5643 5641 5640 5639 5638 5638 5638 5637 5636 5636 5635 5635 5635 5634 5634
5653 5653 5653 5653 5653 5651 5650 5650 5650 5649 5649 5648 5647 5646 5645 5645 5645 5645 5644 5642 5643 5643 5643 5642 5640 5639 5638 5638 5637 5636 5635 5634 5632 5631 5631 5630 5629 5628 5628 5628 5628 5627 5626 5625
5643 5643 5643 5643 5643 5644 5644 5643 5642 5641 5641 5641 5639 5638 5638 5639 5639 5638 5637 5636 5638 5638 5637 5635 5634 5632 5632 5631 5631 5629 5628 5627 5625 5624 5623 5622 5620 5620 5620 5620 5619 5619 5618 5617
5634 5634 5635 5635 5635 5636 5636 5636 5635 5634 5634 5633 5633 5633 5632 5631 5632 5632 5632 5631 5632 5632 5630 5629 5628 5628 5627 5626 5624 5623 5621 5620 5619 5617 5616 5614 5613 5612 5612 5611 5610 5610 5609 5608
5627 5628 5628 5628 5628 5628 5629 5629 5628 5628 5627 5627 5627 5627 5626 5626 5626 5625 5624 5626 5626 5625 5624 5623 5622 5622 5621 5620 5618 5616 5615 5614 5612 5611 5609 5608 5607 5605 5604 5604 5603 5602 5601 5599
5620 5621 5622 5623 5623 5622 5621 5622 5623 5623 5623 5623 5623 5623 5622 5620 5620 5622 5622 5621 5621 5619 5618 5617 5616 5616 5615 5613 5611 5609 5608 5607 5605 5604 5603 5601 5600 5599 5598 5597 5595 5594 5593 5591
5616 5617 5618 5617 5617 5617 5617 5617 5617 5618 5618 5618 5619 5619 5618 5618 5616 5617 5617 5616 5615 5614 5613 5612 5611 5610 5608 5606 5604 5602 5601 5599 5598 5596 5595 5593 5592 5591 5590 5589 5588 5586 5584 5582
5612 5612 5614 5615 5615 5616 5615 5614 5613 5613 5614 5613 5613 5614 5614 5615 5614 5613 5612 5611 5611 5610 5608 5607 5606 5605 5603 5601 5599 5597 5595 5593 5592 5590 5588 5586 5585 5583 5582 5580 5579 5577 5575 5573
5609 5610 5611 5612 5614 5614 5614 5613 5612 5612 5613 5612 5611 5612 5612 5611 5611 5610 5609 5607 5606 5605 5603 5602 5600 5599 5597 5595 5593 5591 5589 5587 5585 5583 5581 5579 5577 5575 5573 5572 5570 5567 5565 5562